Regional Weather Roundup
Issued by NWS

Home | Current Version | Previous Version | Text Only | Print | Product List | Glossary On
Versions: 1 2 3 4 5 6 7 8 9 10 11 12 13 14 15 16 17 18 19 20 21 22 23 24 25 26 27 28 29 30 31 32 33 34 35 36 37 38 39 40 41 42 43 44 45 46 47 48 49 50
000
ASUS44 KMEG 270710
RWRTN
TENNESSEE HOURLY STATE WEATHER ROUNDUP
NATIONAL WEATHER SERVICE MEMPHIS TN
200 AM CDT TUE JUN 27 2017

TNZ002-004-019-021-049-052-054-088>092-270800-
WEST TENNESSEE

CITY           SKY/WX    TMP DP  RH WIND       PRES   REMARKS
MEMPHIS INTL   PTCLDY    72  61  68 SE6       30.07F
NWS MEMPHIS      N/A     68 N/A N/A MISG        N/A
JACKSON        MOCLDY    67  62  84 S3        30.08F
COVINGTON      CLOUDY    70  64  83 CALM      30.08S
UNION CITY     MOCLDY    64  61  88 N3        30.10R
BOLIVAR        CLOUDY    66  63  88 CALM      30.08S
HUNTINGDON     CLEAR     64  61  88 CALM      30.08S
LEXINGTON      MOCLDY    64  63  94 CALM      30.08S
SELMER         CLEAR     64  63  94 CALM      30.08S
SAVANNAH       MOCLDY    66  63  88 SW5       30.07F
$$

TNZ008-025-027-028-033-062-065-066-270800-
NORTH MIDDLE TENNESSEE

CITY           SKY/WX    TMP DP  RH WIND       PRES   REMARKS
NASHVILLE      CLOUDY    69  55  60 CALM      30.11S
PORTLAND       PTCLDY    61  57  88 CALM      30.10F
CLARKSVILLE    CLEAR     59  55  87 CALM      30.09F
SMYRNA         CLOUDY    64  59  83 NW3       30.12R
COOKEVILLE       N/A     59  57  94 N5        30.11R
GALLATIN       CLOUDY    64  59  82 CALM      30.13F
CROSSVILLE     CLOUDY    58  54  86 CALM      30.14R
$$

TNZ061-075-076-078-094-096-097-270800-
SOUTH MIDDLE TENNESSEE

CITY           SKY/WX    TMP DP  RH WIND       PRES   REMARKS
FAYETTEVILLE   CLOUDY    66  61  82 CALM      30.09F
TULLAHOMA      CLEAR     63  57  82 CALM      30.11F
WINCHESTER     MOCLDY    63  61  94 CALM      30.10F
MCMINNVILLE    CLEAR     63  63 100 CALM      30.10F
COLUMBIA       MOCLDY    64  64 100 CALM      30.07F
SHELBYVILLE    CLEAR     61  61 100 CALM      30.10F
$$

TNZ017-018-042-046-047-270800-
NORTHEAST TENNESSEE

CITY           SKY/WX    TMP DP  RH WIND       PRES   REMARKS
TRI CITIES     CLOUDY    58  56  93 N3        30.11S
ELIZABETHTON   CLOUDY    57  55  94 CALM      30.12S
$$

TNZ012-013-036-069-073-074-270800-
CENTRAL EAST TENNESSEE

CITY           SKY/WX    TMP DP  RH WIND       PRES   REMARKS
KNOXVILLE      CLOUDY    63  58  83 CALM      30.09F
OAK RIDGE      CLOUDY    62  57  83 CALM      30.10F
DOWNTOWN KNOXV   N/A     61  61 100 CALM      30.09F
GATLINBURG     CLEAR     59  55  88 CALM      30.10S
MORRISTOWN     MOCLDY    61  55  82 CALM      30.10S
JACKSBORO      CLEAR     59  57  94 CALM      30.14F
$$

TNZ083-085-099-270800-
SOUTHEAST TENNESSEE

CITY           SKY/WX    TMP DP  RH WIND       PRES   REMARKS
CHATTANOOGA    MOCLDY    65  61  87 CALM      30.10F
DAYTON         SUNNY     63  61  94 CALM      30.08F
$$

SKY/WX REPORTED AS FAIR MEANS FEW OR NO CLOUDS BELOW
12 THOUSAND FEET.




USA.gov is the U.S. government's official web portal to all federal, state and local government web resources and services.